| time (UTC) | temp C | wind direction | speed KPH | gust KPH | rain 1hr cm | rain 24hr cm | rain mn cm | humidity % | barometer mb |
| 20260903141543 | 14 | 109 | 6.4 | 12.9 | 0.00 | 0.00 | 0.00 | 29 | 878.6 |
| 20260903140044 | 14 | 118 | 9.7 | 16.1 | 0.00 | 0.00 | 0.00 | 27 | 878.4 |
| 20260903134534 | 13 | 100 | 9.7 | 17.7 | 0.00 | 0.00 | 0.00 | 26 | 878.2 |
| 20260903133029 | 13 | 116 | 9.7 | 14.5 | 0.00 | 0.00 | 0.00 | 30 | 878.1 |
| 20260903131525 | 13 | 117 | 11.3 | 19.3 | 0.00 | 0.00 | 0.00 | 25 | 878.2 |
| 20260903130020 | 13 | 109 | 11.3 | 19.3 | 0.00 | 0.00 | 0.00 | 24 | 878.1 |
| 20260903124526 | 13 | 109 | 9.7 | 19.3 | 0.00 | 0.00 | 0.00 | 26 | 878.0 |
| 20260903123015 | 13 | 147 | 8.0 | 17.7 | 0.00 | 0.00 | 0.00 | 27 | 877.9 |
| 20260903121508 | 13 | 133 | 9.7 | 16.1 | 0.00 | 0.00 | 0.00 | 28 | 877.9 |
| 20260903120003 | 14 | 129 | 8.0 | 20.9 | 0.00 | 0.00 | 0.00 | 26 | 877.9 |
| 20260903114559 | 13 | 117 | 14.5 | 20.9 | 0.00 | 0.00 | 0.00 | 22 | 877.9 |
| 20260903113054 | 13 | 113 | 6.4 | 16.1 | 0.00 | 0.00 | 0.00 | 24 | 878.1 |
| 20260903111549 | 14 | 117 | 6.4 | 22.5 | 0.00 | 0.00 | 0.00 | 22 | 878.2 |
| 20260903110046 | 14 | 108 | 6.4 | 14.5 | 0.00 | 0.00 | 0.00 | 20 | 878.2 |
| 20260903104542 | 14 | 119 | 4.8 | 16.1 | 0.00 | 0.00 | 0.00 | 21 | 878.3 |
| 20260903103038 | 14 | 132 | 6.4 | 22.5 | 0.00 | 0.00 | 0.00 | 18 | 878.3 |
| 20260903101531 | 14 | 119 | 4.8 | 16.1 | 0.00 | 0.00 | 0.00 | 16 | 878.5 |
| 20260903100029 | 15 | 111 | 11.3 | 16.1 | 0.00 | 0.00 | 0.00 | 13 | 878.5 |
| 20260903094532 | 15 | 121 | 9.7 | 20.9 | 0.00 | 0.00 | 0.00 | 12 | 878.5 |
| 20260903093020 | 15 | 114 | 11.3 | 19.3 | 0.00 | 0.00 | 0.00 | 10 | 878.6 |
| 20260903091514 | 15 | 82 | 14.5 | 20.9 | 0.00 | 0.00 | 0.00 | 10 | 878.7 |
| 20260903090016 | 15 | 108 | 12.9 | 27.4 | 0.00 | 0.00 | 0.00 | 8 | 878.8 |
| 20260903084506 | 15 | 106 | 12.9 | 27.4 | 0.00 | 0.00 | 0.00 | 7 | 878.9 |
| 20260903083001 | 15 | 102 | 12.9 | 20.9 | 0.00 | 0.00 | 0.00 | 8 | 879.2 |
| 20260903081613 | 15 | 117 | 9.7 | 19.3 | 0.00 | 0.00 | 0.00 | 8 | 879.3 |
| 20260903080052 | 15 | 111 | 9.7 | 22.5 | 0.00 | 0.00 | 0.00 | 7 | 879.4 |
| 20260903074555 | 14 | 95 | 8.0 | 16.1 | 0.00 | 0.00 | 0.00 | 9 | 879.5 |
| 20260903073055 | 14 | 93 | 4.8 | 12.9 | 0.00 | 0.00 | 0.00 | 18 | 879.5 |
| 20260903071558 | 14 | 98 | 4.8 | 12.9 | 0.00 | 0.00 | 0.00 | 17 | 879.4 |
| 20260903070041 | 15 | 120 | 3.2 | 14.5 | 0.00 | 0.00 | 0.00 | 13 | 879.4 |
| 20260903064540 | 16 | 117 | 4.8 | 17.7 | 0.00 | 0.00 | 0.00 | 11 | 879.3 |
| 20260903063046 | 16 | 85 | 11.3 | 19.3 | 0.00 | 0.00 | 0.00 | 10 | 879.2 |
| 20260903061540 | 16 | 113 | 12.9 | 24.1 | 0.00 | 0.00 | 0.00 | 12 | 879.1 |
| 20260903060108 | 16 | 115 | 11.3 | 24.1 | 0.00 | 0.00 | 0.00 | 11 | 879.1 |
| 20260903054537 | 16 | 115 | 14.5 | 22.5 | 0.00 | 0.00 | 0.00 | 12 | 879.2 |
| 20260903053035 | 16 | 111 | 14.5 | 24.1 | 0.00 | 0.00 | 0.00 | 10 | 879.4 |
| 20260903051535 | 16 | 102 | 11.3 | 25.7 | 0.00 | 0.00 | 0.00 | 11 | 879.4 |
| 20260903050034 | 16 | 105 | 11.3 | 22.5 | 0.00 | 0.00 | 0.00 | 11 | 879.6 |
| 20260903044536 | 16 | 107 | 11.3 | 24.1 | 0.00 | 0.00 | 0.00 | 11 | 879.7 |
| 20260903043032 | 17 | 98 | 9.7 | 16.1 | 0.00 | 0.00 | 0.00 | 11 | 879.6 |
| 20260903041532 | 17 | 92 | 11.3 | 22.5 | 0.00 | 0.00 | 0.00 | 10 | 879.6 |
| 20260903040049 | 17 | 111 | 11.3 | 24.1 | 0.00 | 0.00 | 0.00 | 11 | 879.6 |
| 20260903034532 | 16 | 79 | 9.7 | 19.3 | 0.00 | 0.00 | 0.00 | 13 | 879.4 |
| 20260903033032 | 15 | 103 | 4.8 | 19.3 | 0.00 | 0.00 | 0.00 | 23 | 879.4 |
| 20260903031531 | 14 | 112 | 6.4 | 12.9 | 0.00 | 0.00 | 0.00 | 63 | 879.3 |
| 20260903030024 | 14 | 105 | 4.8 | 14.5 | 0.00 | 0.00 | 0.00 | 60 | 879.2 |
| 20260903024523 | 15 | 113 | 4.8 | 14.5 | 0.00 | 0.00 | 0.00 | 63 | 879.2 |
| 20260903023035 | 15 | 79 | 6.4 | 14.5 | 0.00 | 0.00 | 0.00 | 62 | 879.2 |
| 20260903021521 | 16 | 121 | 6.4 | 19.3 | 0.00 | 0.00 | 0.00 | 61 | 879.1 |
| 20260903020019 | 17 | 105 | 11.3 | 17.7 | 0.00 | 0.00 | 0.00 | 58 | 879.1 |
| 20260903014517 | 17 | 90 | 12.9 | 25.7 | 0.00 | 0.00 | 0.00 | 54 | 879.0 |
| 20260903013014 | 18 | 117 | 9.7 | 19.3 | 0.00 | 0.00 | 0.00 | 49 | 879.2 |
| 20260903011513 | 19 | 130 | 14.5 | 24.1 | 0.00 | 0.00 | 0.00 | 45 | 879.3 |
| 20260903010034 | 20 | 119 | 8.0 | 22.5 | 0.00 | 0.00 | 0.00 | 42 | 879.3 |
| 20260903004511 | 20 | 103 | 12.9 | 25.7 | 0.00 | 0.00 | 0.00 | 41 | 879.3 |
| 20260903003010 | 21 | 134 | 12.9 | 27.4 | 0.00 | 0.00 | 0.00 | 38 | 879.2 |
| 20260903001512 | 21 | 133 | 14.5 | 29.0 | 0.00 | 0.00 | 0.00 | 36 | 879.4 |
| 20260903000007 | 22 | 140 | 14.5 | 27.4 | 0.00 | 0.00 | 0.00 | 33 | 879.4 |
| 20260902234506 | 22 | 152 | 14.5 | 32.2 | 0.00 | 0.00 | 0.00 | 33 | 879.4 |
| 20260902233004 | 23 | 175 | 17.7 | 29.0 | 0.00 | 0.00 | 0.00 | 31 | 879.5 |
| 20260902231504 | 23 | 144 | 14.5 | 35.4 | 0.00 | 0.00 | 0.00 | 30 | 879.6 |
| 20260902230003 | 23 | 125 | 14.5 | 35.4 | 0.00 | 0.00 | 0.00 | 32 | 879.9 |
| 20260902224502 | 23 | 98 | 16.1 | 29.0 | 0.00 | 0.00 | 0.00 | 29 | 879.9 |
| 20260902223004 | 24 | 127 | 11.3 | 35.4 | 0.00 | 0.00 | 0.00 | 27 | 880.0 |
| 20260902221600 | 24 | 161 | 8.0 | 37.0 | 0.00 | 0.00 | 0.00 | 26 | 880.0 |
| 20260902220104 | 24 | 120 | 17.7 | 35.4 | 0.00 | 0.00 | 0.00 | 23 | 880.3 |
| 20260902214605 | 24 | 107 | 20.9 | 35.4 | 0.00 | 0.00 | 0.00 | 20 | 880.2 |
| 20260902213056 | 24 | 165 | 17.7 | 37.0 | 0.00 | 0.00 | 0.00 | 20 | 880.3 |
| 20260902211556 | 25 | 144 | 24.1 | 35.4 | 0.00 | 0.00 | 0.00 | 19 | 880.3 |
| 20260902210056 | 24 | 140 | 17.7 | 30.6 | 0.00 | 0.00 | 0.00 | 19 | 880.5 |
| 20260902204555 | 24 | 128 | 17.7 | 37.0 | 0.00 | 0.00 | 0.00 | 20 | 880.6 |
| 20260902203053 | 24 | 144 | 16.1 | 27.4 | 0.00 | 0.00 | 0.00 | 20 | 880.7 |
| 20260902201553 | 24 | 157 | 14.5 | 33.8 | 0.00 | 0.00 | 0.00 | 21 | 880.8 |
| 20260902200052 | 24 | 134 | 12.9 | 33.8 | 0.00 | 0.00 | 0.00 | 22 | 880.8 |
| 20260902194550 | 23 | 137 | 20.9 | 35.4 | 0.00 | 0.00 | 0.00 | 21 | 881.0 |
| 20260902193049 | 23 | 171 | 16.1 | 32.2 | 0.00 | 0.00 | 0.00 | 19 | 881.0 |
| 20260902191550 | 23 | 125 | 14.5 | 27.4 | 0.00 | 0.00 | 0.00 | 19 | 881.2 |
| 20260902190047 | 23 | 147 | 12.9 | 29.0 | 0.00 | 0.00 | 0.00 | 19 | 881.1 |
| 20260902184546 | 23 | 142 | 12.9 | 35.4 | 0.00 | 0.00 | 0.00 | 18 | 881.2 |
| 20260902183043 | 22 | 136 | 17.7 | 35.4 | 0.00 | 0.00 | 0.00 | 19 | 881.3 |
| 20260902181547 | 22 | 162 | 16.1 | 33.8 | 0.00 | 0.00 | 0.00 | 17 | 881.2 |
| 20260902180052 | 22 | 117 | 16.1 | 35.4 | 0.00 | 0.00 | 0.00 | 17 | 881.1 |
| 20260902174538 | 22 | 121 | 16.1 | 29.0 | 0.00 | 0.00 | 0.00 | 18 | 881.2 |
| 20260902173036 | 21 | 97 | 14.5 | 35.4 | 0.00 | 0.00 | 0.00 | 18 | 881.2 |
| 20260902171538 | 21 | 115 | 16.1 | 29.0 | 0.00 | 0.00 | 0.00 | 18 | 881.0 |
| 20260902170031 | 21 | 140 | 12.9 | 29.0 | 0.00 | 0.00 | 0.00 | 18 | 881.0 |
| 20260902164528 | 21 | 143 | 12.9 | 29.0 | 0.00 | 0.00 | 0.00 | 19 | 880.9 |
| 20260902163023 | 20 | 136 | 12.9 | 25.7 | 0.00 | 0.00 | 0.00 | 20 | 880.8 |
| 20260902161535 | 20 | 130 | 16.1 | 24.1 | 0.00 | 0.00 | 0.00 | 19 | 880.7 |
| 20260902160036 | 20 | 132 | 11.3 | 25.7 | 0.00 | 0.00 | 0.00 | 19 | 880.8 |
| 20260902154532 | 19 | 142 | 11.3 | 22.5 | 0.00 | 0.00 | 0.00 | 19 | 880.6 |
| 20260902153139 | 19 | 117 | 9.7 | 25.7 | 0.00 | 0.00 | 0.00 | 20 | 880.6 |
| 20260902151514 | 18 | 106 | 12.9 | 20.9 | 0.00 | 0.00 | 0.00 | 21 | 880.4 |
| 20260902143017 | 17 | 113 | 8.0 | 17.7 | 0.00 | 0.00 | 0.00 | 23 | 880.5 |